{"data":{"norad_id":67468,"epoch":"2026-05-24T23:36:15.895584Z","epoch_age_seconds":76738,"freshness":"FRESH","line1":"1 67468U 26008Z   26144.98351731  .00020252  00000+0  74312-3 0  9991","line2":"2 67468  42.9991 134.0572 0001078 266.5631  93.5097 15.27594700 21246","mean_motion":15.275947,"eccentricity":0.0001078,"inclination_deg":42.9991,"raan_deg":134.0572,"arg_perigee_deg":266.5631,"mean_anomaly_deg":93.5097,"bstar":0.00074312,"rev_number":2124,"period_min":94.265841587432,"perigee_km":482.26544818819,"apogee_km":483.74471042048,"semimajor_km":6861.1420793043,"source":"CELESTRAK","updated_at":"2026-05-25T13:38:21.564369Z"}}